Tracking 28790 objects as of 19-Apr-2024
HD Live streaming from Space Station
objects crossing your sky now

ARIANE 2 DEB

Track ARIANE 2 DEB now!


NORAD ID: 27650
Int'l Code: 1989-006AE
Perigee: 397.6 km
Apogee: 35,022.4 km
Inclination: 8.1 °
Period: 619.8 minutes
Semi major axis: 24081 km
RCS: 0.1719 m2 (medium)
Launch date: January 27, 1989
Source: France (FR)
Launch site: FRENCH GUIANA (FRGUI)

Note: This is SATELLITE DEBRIS
Your satellite tracking list
Your tracking list is empty




NASA's NSSDC Master Catalog

Two Line Element Set (TLE):
1 27650U 89006AE  24109.38097353  .00000869  00000-0  24515-2 0  9999
2 27650   8.0807 220.2841 7189232 152.9298 277.6169  2.32321992189719
Source of the keplerian elements: AFSPC